When you browse on this site, cookies collect data to enhance your experience and personalize the content and advertising you see.
Visit our Privacy Policy to learn more. By continuing to use the site, you agree to this use of cookies and data.

Previsão horária em Abdullino

Hoje, 26 Setembro, Sábado

Tempo Temperatura Precipitação Vento Pressão Humidade
00:00 +7°C° 0 mm 0 m/s 760 mmHg 91%
01:00 +6°C° 0 mm 0 m/s 760 mmHg 91%
02:00 +6°C° 0 mm 0 m/s 760 mmHg 91%
03:00 +6°C° 0 mm 0 m/s 760 mmHg 91%
04:00 +6°C° 0 mm 0 m/s 761 mmHg 90%
05:00 +6°C° 0 mm 0 m/s 761 mmHg 90%
06:00 +6°C° 0 mm 0 m/s 761 mmHg 89%
07:00 +6°C° 0 mm 0 m/s 761 mmHg 89%
08:00 +9°C° 0 mm 1 m/s 761 mmHg 82%
09:00 +12°C° 0 mm 1 m/s 761 mmHg 74%
10:00 +14°C° 0 mm 1 m/s 761 mmHg 67%
11:00 +15°C° 0 mm 1 m/s 761 mmHg 64%
12:00 +16°C° 0 mm 1 m/s 761 mmHg 60%
13:00 +18°C° 0 mm 1 m/s 761 mmHg 57%
14:00 +16°C° 0 mm 1 m/s 761 mmHg 60%
15:00 +16°C° 0 mm 1 m/s 761 mmHg 62%
16:00 +16°C° 0 mm 1 m/s 761 mmHg 65%
17:00 +14°C° 0 mm 1 m/s 761 mmHg 72%
18:00 +11°C° 0 mm 0 m/s 761 mmHg 80%
19:00 +9°C° 0 mm 0 m/s 761 mmHg 87%
20:00 +9°C° 0 mm 0 m/s 761 mmHg 88%
21:00 +8°C° 0 mm 0 m/s 761 mmHg 89%
22:00 +8°C° 0 mm 0 m/s 761 mmHg 89%
23:00 +8°C° 0 mm 0 m/s 761 mmHg 90%

Amanhã, 27 Setembro, Domingo

Tempo Temperatura Precipitação Vento Pressão Humidade
00:00 +8°C° 0 mm 0 m/s 761 mmHg 90%
01:00 +7°C° 0 mm 0 m/s 761 mmHg 90%
02:00 +7°C° 0 mm 0 m/s 762 mmHg 90%
03:00 +7°C° 0 mm 0 m/s 762 mmHg 90%
04:00 +7°C° 0 mm 0 m/s 763 mmHg 91%
05:00 +7°C° 0 mm 0 m/s 762 mmHg 90%
06:00 +7°C° 0 mm 0 m/s 762 mmHg 90%
07:00 +7°C° 0 mm 0 m/s 762 mmHg 90%
08:00 +9°C° 0 mm 0 m/s 762 mmHg 82%
09:00 +11°C° 0 mm 0 m/s 762 mmHg 75%
10:00 +14°C° 0 mm 0 m/s 762 mmHg 68%
11:00 +15°C° 0 mm 1 m/s 762 mmHg 64%
12:00 +16°C° 0 mm 1 m/s 762 mmHg 61%
13:00 +18°C° 0 mm 1 m/s 762 mmHg 58%
14:00 +18°C° 0 mm 1 m/s 762 mmHg 61%
15:00 +18°C° 0 mm 1 m/s 762 mmHg 63%
16:00 +16°C° 0 mm 1 m/s 762 mmHg 66%
17:00 +15°C° 0 mm 1 m/s 762 mmHg 73%
18:00 +13°C° 0 mm 1 m/s 762 mmHg 80%
19:00 +11°C° 0 mm 1 m/s 762 mmHg 87%
20:00 +10°C° 0 mm 0 m/s 762 mmHg 88%
21:00 +9°C° 0 mm 0 m/s 762 mmHg 89%
22:00 +9°C° 0 mm 0 m/s 762 mmHg 90%
23:00 +9°C° 0 mm 0 m/s 762 mmHg 90%

Depois de amanhã, 28 Setembro, Segunda-feira

Tempo Temperatura Precipitação Vento Pressão Humidade
00:00 +8°C° 0 mm 0 m/s 762 mmHg 91%
01:00 +8°C° 0 mm 0 m/s 762 mmHg 91%
02:00 +8°C° 0 mm 0 m/s 762 mmHg 91%
03:00 +8°C° 0 mm 0 m/s 762 mmHg 91%
04:00 +8°C° 0 mm 0 m/s 762 mmHg 92%
05:00 +7°C° 0 mm 0 m/s 762 mmHg 91%
06:00 +7°C° 0 mm 0 m/s 762 mmHg 91%
07:00 +7°C° 0 mm 0 m/s 762 mmHg 91%
08:00 +10°C° 0 mm 1 m/s 762 mmHg 84%
09:00 +12°C° 0 mm 1 m/s 762 mmHg 76%
10:00 +14°C° 0 mm 1 m/s 762 mmHg 69%
11:00 +15°C° 0 mm 1 m/s 762 mmHg 66%
12:00 +16°C° 0 mm 2 m/s 762 mmHg 64%
13:00 +16°C° 0 mm 2 m/s 762 mmHg 62%
14:00 +16°C° 0 mm 2 m/s 762 mmHg 64%
15:00 +16°C° 0 mm 2 m/s 762 mmHg 66%
16:00 +16°C° 0 mm 2 m/s 762 mmHg 67%
17:00 +14°C° 0 mm 1 m/s 762 mmHg 74%
18:00 +12°C° 0 mm 1 m/s 762 mmHg 81%
19:00 +11°C° 0 mm 1 m/s 762 mmHg 88%
20:00 +9°C° 0 mm 0 m/s 762 mmHg 89%
21:00 +9°C° 0 mm 0 m/s 762 mmHg 89%
22:00 +9°C° 0 mm 0 m/s 763 mmHg 90%
23:00 +8°C° 0 mm 0 m/s 763 mmHg 90%

29 Setembro, Terça-feira

Tempo Temperatura Precipitação Vento Pressão Humidade
00:00 +8°C° 0 mm 0 m/s 763 mmHg 91%
01:00 +8°C° 0 mm 0 m/s 763 mmHg 91%
02:00 +8°C° 0 mm 0 m/s 763 mmHg 92%
03:00 +7°C° 0 mm 0 m/s 763 mmHg 92%
04:00 +7°C° 0 mm 0 m/s 763 mmHg 92%
05:00 +7°C° 0 mm 0 m/s 763 mmHg 92%
06:00 +7°C° 0 mm 0 m/s 763 mmHg 92%
07:00 +7°C° 0 mm 0 m/s 763 mmHg 92%
08:00 +10°C° 0 mm 0 m/s 763 mmHg 85%
09:00 +12°C° 0 mm 0 m/s 763 mmHg 78%
10:00 +14°C° 0 mm 0 m/s 763 mmHg 70%
11:00 +15°C° 0 mm 0 m/s 763 mmHg 66%
12:00 +16°C° 0 mm 0 m/s 763 mmHg 62%
13:00 +17°C° 0 mm 0 m/s 763 mmHg 58%
14:00 +17°C° 0 mm 0 m/s 763 mmHg 60%
15:00 +17°C° 0 mm 0 m/s 763 mmHg 62%
16:00 +16°C° 0 mm 0 m/s 762 mmHg 64%
17:00 +14°C° 0 mm 0 m/s 762 mmHg 71%
18:00 +12°C° 0 mm 0 m/s 763 mmHg 78%
19:00 +11°C° 0 mm 0 m/s 763 mmHg 85%
20:00 +10°C° 0 mm 0 m/s 763 mmHg 87%
21:00 +10°C° 0 mm 0 m/s 763 mmHg 88%
22:00 +9°C° 0 mm 0 m/s 763 mmHg 89%
23:00 +9°C° 0 mm 0 m/s 763 mmHg 90%

30 Setembro, Quarta-feira

Tempo Temperatura Precipitação Vento Pressão Humidade
00:00 +9°C° 0 mm 0 m/s 762 mmHg 90%
01:00 +9°C° 0 mm 0 m/s 762 mmHg 90%
02:00 +8°C° 0 mm 0 m/s 762 mmHg 90%
03:00 +8°C° 0 mm 0 m/s 762 mmHg 90%
04:00 +8°C° 0 mm 0 m/s 762 mmHg 90%
05:00 +8°C° 0 mm 0 m/s 762 mmHg 90%
06:00 +8°C° 0 mm 0 m/s 763 mmHg 90%
07:00 +8°C° 0 mm 0 m/s 763 mmHg 89%
08:00 +10°C° 0 mm 0 m/s 763 mmHg 83%
09:00 +12°C° 0 mm 0 m/s 762 mmHg 77%
10:00 +13°C° 0 mm 0 m/s 762 mmHg 71%
11:00 +14°C° 0 mm 0 m/s 762 mmHg 67%
12:00 +15°C° 0 mm 0 m/s 762 mmHg 64%
13:00 +18°C° 0 mm 1 m/s 762 mmHg 61%
14:00 +18°C° 0 mm 1 m/s 762 mmHg 64%
15:00 +16°C° 0 mm 1 m/s 762 mmHg 66%
16:00 +16°C° 0 mm 1 m/s 761 mmHg 69%
17:00 +15°C° 0 mm 1 m/s 761 mmHg 75%
18:00 +13°C° 0 mm 1 m/s 761 mmHg 81%
19:00 +11°C° 0 mm 1 m/s 761 mmHg 87%
20:00 +11°C° 0 mm 1 m/s 761 mmHg 87%
21:00 +11°C° 0 mm 1 m/s 761 mmHg 88%
22:00 +10°C° 0 mm 1 m/s 761 mmHg 89%
23:00 +10°C° 0 mm 1 m/s 761 mmHg 89%

1 Outubro, Quinta-feira

Tempo Temperatura Precipitação Vento Pressão Humidade
00:00 +10°C° 0 mm 1 m/s 761 mmHg 89%
01:00 +10°C° 0 mm 1 m/s 761 mmHg 89%
02:00 +10°C° 0 mm 1 m/s 761 mmHg 90%
03:00 +10°C° 0 mm 1 m/s 761 mmHg 90%
04:00 +9°C° 0 mm 1 m/s 761 mmHg 91%
05:00 +9°C° 0 mm 1 m/s 761 mmHg 91%
06:00 +9°C° 0 mm 1 m/s 761 mmHg 91%
07:00 +9°C° 0 mm 1 m/s 762 mmHg 91%
08:00 +11°C° 0 mm 1 m/s 762 mmHg 84%
09:00 +13°C° 0 mm 1 m/s 761 mmHg 77%
10:00 +15°C° 0 mm 1 m/s 761 mmHg 70%
11:00 +16°C° 0 mm 1 m/s 761 mmHg 65%
12:00 +18°C° 0 mm 1 m/s 761 mmHg 60%
13:00 +19°C° 0 mm 1 m/s 761 mmHg 56%
14:00 +19°C° 0 mm 1 m/s 761 mmHg 58%
15:00 +19°C° 0 mm 1 m/s 761 mmHg 61%
16:00 +18°C° 0 mm 1 m/s 761 mmHg 64%
17:00 +15°C° 0 mm 1 m/s 761 mmHg 70%
18:00 +13°C° 0 mm 1 m/s 761 mmHg 76%
19:00 +12°C° 0 mm 1 m/s 761 mmHg 83%
20:00 +11°C° 0 mm 1 m/s 761 mmHg 84%
21:00 +11°C° 0 mm 1 m/s 761 mmHg 85%
22:00 +10°C° 0 mm 1 m/s 761 mmHg 87%
23:00 +10°C° 0 mm 1 m/s 761 mmHg 87%
Mostrar mais